Time,TemperatureF,DewpointF,PressureIn,WindDirection,WindDirectionDegrees,WindSpeedMPH,WindSpeedGustMPH,Humidity,HourlyPrecipIn,Conditions,Clouds,dailyrainin,SoftwareType,DateUTC
2013-03-09 00:01:00,33.0,30.0,-100.00,WNW,300,9.0,12.0,89,0.00,,,-99.99,,2013-03-09 07:01:00,
2013-03-09 00:11:00,33.0,31.0,-100.00,WNW,295,11.0,12.0,91,0.00,,,-99.99,,2013-03-09 07:11:00,
2013-03-09 00:21:00,33.0,31.0,-100.00,WNW,300,10.0,12.0,93,0.00,,,-99.99,,2013-03-09 07:21:00,
2013-03-09 00:32:00,33.0,32.0,-100.00,WNW,290,11.0,14.0,95,0.00,,,-99.99,,2013-03-09 07:32:00,
2013-03-09 00:41:00,33.0,32.0,-100.00,WNW,295,12.0,16.0,96,0.00,,,-99.99,,2013-03-09 07:41:00,
2013-03-09 00:51:00,33.0,32.0,-100.00,WNW,285,12.0,16.0,97,0.00,,,-99.99,,2013-03-09 07:51:00,
2013-03-09 01:01:00,32.0,32.0,-100.00,WNW,295,14.0,18.0,98,0.10,,,-99.99,,2013-03-09 08:01:00,
2013-03-09 01:11:00,31.0,31.0,-100.00,WNW,295,22.0,26.0,98,0.20,,,-99.99,,2013-03-09 08:11:00,
2013-03-09 01:21:00,31.0,31.0,-100.00,WNW,290,14.0,24.0,99,0.10,,,-99.99,,2013-03-09 08:21:00,
2013-03-09 01:32:00,30.0,30.0,-100.00,WNW,290,22.0,27.0,99,0.10,,,-99.99,,2013-03-09 08:32:00,
2013-03-09 01:41:00,30.0,30.0,-100.00,WNW,285,14.0,29.0,99,0.00,,,-99.99,,2013-03-09 08:41:00,
2013-03-09 01:52:00,30.0,30.0,-100.00,WNW,285,12.0,21.0,99,0.00,,,-99.99,,2013-03-09 08:52:00,
2013-03-09 02:01:00,30.0,29.0,-100.00,WNW,295,12.0,22.0,99,0.10,,,-99.99,,2013-03-09 09:01:00,
2013-03-09 02:12:00,29.0,29.0,-100.00,WNW,290,11.0,18.0,99,0.10,,,-99.99,,2013-03-09 09:12:00,
2013-03-09 02:21:00,29.0,29.0,-100.00,WNW,295,8.0,14.0,99,0.00,,,-99.99,,2013-03-09 09:21:00,
2013-03-09 02:32:00,29.0,29.0,-100.00,WNW,285,6.0,9.0,99,0.00,,,-99.99,,2013-03-09 09:32:00,
2013-03-09 02:42:00,29.0,29.0,-100.00,WNW,300,11.0,14.0,99,0.00,,,-99.99,,2013-03-09 09:42:00,
2013-03-09 02:52:00,29.0,29.0,-100.00,West,280,11.0,21.0,99,0.00,,,-99.99,,2013-03-09 09:52:00,
2013-03-09 03:01:00,29.0,29.0,-100.00,West,260,5.0,21.0,99,0.00,,,-99.99,,2013-03-09 10:01:00,
2013-03-09 03:11:00,29.0,29.0,-100.00,NW,305,3.0,12.0,99,0.00,,,-99.99,,2013-03-09 10:11:00,
2013-03-09 03:21:00,29.0,29.0,-100.00,NW,305,4.0,8.0,99,0.00,,,-99.99,,2013-03-09 10:21:00,
2013-03-09 03:31:00,29.0,29.0,-100.00,North,0,4.0,9.0,99,0.00,,,-99.99,,2013-03-09 10:31:00,
2013-03-09 03:42:00,29.0,29.0,-100.00,NE,40,4.0,7.0,99,0.00,,,-99.99,,2013-03-09 10:42:00,
2013-03-09 03:52:00,29.0,29.0,-100.00,NNE,20,4.0,6.0,99,0.00,,,-99.99,,2013-03-09 10:52:00,
2013-03-09 04:01:00,29.0,28.0,-100.00,NNE,30,4.0,4.0,99,0.00,,,-99.99,,2013-03-09 11:01:00,
2013-03-09 04:11:00,28.0,28.0,-100.00,East,95,0.0,4.0,99,0.00,,,-99.99,,2013-03-09 11:11:00,
2013-03-09 04:21:00,28.0,28.0,-100.00,North,10,1.0,2.0,99,0.00,,,-99.99,,2013-03-09 11:21:00,
2013-03-09 04:32:00,28.0,28.0,-100.00,ENE,75,1.0,2.0,99,0.00,,,-99.99,,2013-03-09 11:32:00,
2013-03-09 04:42:00,28.0,28.0,-100.00,East,80,1.0,4.0,99,0.00,,,-99.99,,2013-03-09 11:42:00,
2013-03-09 04:52:00,27.0,27.0,-100.00,SE,125,4.0,4.0,99,0.00,,,-99.99,,2013-03-09 11:52:00,
2013-03-09 05:01:00,27.0,27.0,-100.00,SE,130,3.0,4.0,99,0.00,,,-99.99,,2013-03-09 12:01:00,
2013-03-09 05:11:00,26.0,26.0,-100.00,ESE,110,4.0,6.0,99,0.00,,,-99.99,,2013-03-09 12:11:00,
2013-03-09 05:21:00,26.0,26.0,-100.00,East,100,3.0,4.0,99,0.00,,,-99.99,,2013-03-09 12:21:00,
2013-03-09 05:32:00,25.0,25.0,-100.00,ESE,115,4.0,6.0,99,0.00,,,-99.99,,2013-03-09 12:32:00,
2013-03-09 05:42:00,26.0,26.0,-100.00,East,100,4.0,6.0,99,0.00,,,-99.99,,2013-03-09 12:42:00,
2013-03-09 05:52:00,26.0,26.0,-100.00,ESE,105,2.0,5.0,99,0.00,,,-99.99,,2013-03-09 12:52:00,
2013-03-09 06:02:00,26.0,26.0,-100.00,ESE,115,2.0,4.0,99,0.00,,,-99.99,,2013-03-09 13:02:00,
2013-03-09 06:11:00,26.0,26.0,-100.00,ESE,120,3.0,5.0,99,0.00,,,-99.99,,2013-03-09 13:11:00,
2013-03-09 06:21:00,26.0,26.0,-100.00,ESE,120,0.0,3.0,99,0.00,,,-99.99,,2013-03-09 13:21:00,
2013-03-09 06:32:00,26.0,26.0,-100.00,East,90,1.0,5.0,99,0.00,,,-99.99,,2013-03-09 13:32:00,
2013-03-09 06:42:00,27.0,27.0,-100.00,NNW,345,1.0,2.0,99,0.00,,,-99.99,,2013-03-09 13:42:00,
2013-03-09 06:52:00,27.0,27.0,-100.00,SE,145,0.0,2.0,99,0.00,,,-99.99,,2013-03-09 13:52:00,
2013-03-09 07:01:00,27.0,27.0,-100.00,East,100,4.0,4.0,99,0.00,,,-99.99,,2013-03-09 14:01:00,
2013-03-09 07:11:00,27.0,27.0,-100.00,ESE,105,3.0,4.0,99,0.00,,,-99.99,,2013-03-09 14:11:00,
2013-03-09 07:21:00,27.0,27.0,-100.00,ESE,105,1.0,2.0,99,0.00,,,-99.99,,2013-03-09 14:21:00,
2013-03-09 07:32:00,27.0,27.0,-100.00,ESE,105,0.0,1.0,99,0.00,,,-99.99,,2013-03-09 14:32:00,
2013-03-09 07:42:00,27.0,27.0,-100.00,East,100,2.0,2.0,99,0.00,,,-99.99,,2013-03-09 14:42:00,
2013-03-09 07:52:00,27.0,27.0,-100.00,East,100,0.0,1.0,99,0.00,,,-99.99,,2013-03-09 14:52:00,
2013-03-09 08:01:00,28.0,28.0,-100.00,East,100,0.0,0.0,99,0.00,,,-99.99,,2013-03-09 15:01:00,
2013-03-09 08:11:00,28.0,28.0,-100.00,West,270,2.0,4.0,99,0.00,,,-99.99,,2013-03-09 15:11:00,
2013-03-09 08:22:00,29.0,28.0,-100.00,West,275,3.0,4.0,99,0.00,,,-99.99,,2013-03-09 15:22:00,
2013-03-09 08:32:00,29.0,29.0,-100.00,WNW,285,5.0,6.0,99,0.00,,,-99.99,,2013-03-09 15:32:00,
2013-03-09 08:42:00,29.0,29.0,-100.00,West,280,6.0,6.0,99,0.00,,,-99.99,,2013-03-09 15:42:00,
2013-03-09 08:52:00,29.0,29.0,-100.00,WNW,295,7.0,8.0,99,0.00,,,-99.99,,2013-03-09 15:52:00,
2013-03-09 09:01:00,29.0,29.0,-100.00,WNW,295,7.0,9.0,99,0.00,,,-99.99,,2013-03-09 16:01:00,
2013-03-09 09:11:00,29.0,29.0,-100.00,WNW,295,7.0,10.0,99,0.00,,,-99.99,,2013-03-09 16:11:00,
2013-03-09 09:21:00,29.0,29.0,-100.00,WNW,300,9.0,10.0,99,0.00,,,-99.99,,2013-03-09 16:21:00,
2013-03-09 09:32:00,29.0,29.0,-100.00,WNW,290,9.0,12.0,99,0.10,,,-99.99,,2013-03-09 16:32:00,
2013-03-09 09:42:00,29.0,29.0,-100.00,WNW,290,7.0,9.0,99,0.00,,,-99.99,,2013-03-09 16:42:00,
2013-03-09 09:51:00,29.0,29.0,-100.00,WNW,290,8.0,11.0,99,0.00,,,-99.99,,2013-03-09 16:51:00,
2013-03-09 10:01:00,29.0,29.0,-100.00,West,280,11.0,12.0,99,0.00,,,-99.99,,2013-03-09 17:01:00,
2013-03-09 10:11:00,30.0,29.0,-100.00,WNW,290,10.0,14.0,99,0.00,,,-99.99,,2013-03-09 17:11:00,
2013-03-09 10:22:00,30.0,29.0,-100.00,WNW,285,9.0,15.0,99,0.10,,,-99.99,,2013-03-09 17:22:00,
2013-03-09 10:32:00,29.0,29.0,-100.00,WNW,295,10.0,17.0,99,0.00,,,-99.99,,2013-03-09 17:32:00,
2013-03-09 10:42:00,30.0,29.0,-100.00,WNW,290,11.0,12.0,99,0.00,,,-99.99,,2013-03-09 17:42:00,
2013-03-09 10:52:00,30.0,30.0,-100.00,WNW,290,10.0,13.0,99,0.00,,,-99.99,,2013-03-09 17:52:00,
2013-03-09 11:01:00,30.0,30.0,-100.00,WNW,285,8.0,16.0,99,0.00,,,-99.99,,2013-03-09 18:01:00,
2013-03-09 11:11:00,30.0,30.0,-100.00,WNW,295,13.0,16.0,99,0.00,,,-99.99,,2013-03-09 18:11:00,
2013-03-09 11:21:00,30.0,30.0,-100.00,WNW,290,14.0,20.0,99,0.00,,,-99.99,,2013-03-09 18:21:00,
2013-03-09 11:32:00,30.0,30.0,-100.00,West,265,5.0,20.0,99,0.00,,,-99.99,,2013-03-09 18:32:00,
2013-03-09 11:42:00,30.0,30.0,-100.00,NW,310,6.0,17.0,99,0.00,,,-99.99,,2013-03-09 18:42:00,
2013-03-09 11:52:00,30.0,30.0,-100.00,NW,310,16.0,19.0,99,0.00,,,-99.99,,2013-03-09 18:52:00,
2013-03-09 12:01:00,30.0,30.0,-100.00,WNW,300,17.0,21.0,99,0.00,,,-99.99,,2013-03-09 19:01:00,
2013-03-09 12:11:00,30.0,30.0,-100.00,WNW,300,16.0,22.0,99,0.00,,,-99.99,,2013-03-09 19:11:00,
2013-03-09 12:22:00,31.0,31.0,-100.00,NW,305,16.0,19.0,99,0.00,,,-99.99,,2013-03-09 19:22:00,
2013-03-09 12:32:00,31.0,31.0,-100.00,WNW,300,17.0,21.0,99,0.00,,,-99.99,,2013-03-09 19:32:00,
2013-03-09 12:42:00,31.0,31.0,-100.00,WNW,295,16.0,22.0,99,0.00,,,-99.99,,2013-03-09 19:42:00,
2013-03-09 12:51:00,31.0,31.0,-100.00,WNW,295,18.0,26.0,99,0.00,,,-99.99,,2013-03-09 19:51:00,
2013-03-09 13:01:00,30.0,30.0,-100.00,WNW,295,20.0,26.0,99,0.00,,,-99.99,,2013-03-09 20:01:00,
2013-03-09 13:11:00,30.0,30.0,-100.00,WNW,300,19.0,27.0,99,0.00,,,-99.99,,2013-03-09 20:11:00,
2013-03-09 13:21:00,30.0,30.0,-100.00,WNW,300,19.0,27.0,99,0.00,,,-99.99,,2013-03-09 20:21:00,
2013-03-09 13:32:00,30.0,30.0,-100.00,NW,305,17.0,23.0,99,0.00,,,-99.99,,2013-03-09 20:32:00,
2013-03-09 13:42:00,30.0,30.0,-100.00,WNW,300,16.0,24.0,99,0.00,,,-99.99,,2013-03-09 20:42:00,
2013-03-09 13:52:00,30.0,29.0,-100.00,NW,305,17.0,23.0,97,0.00,,,-99.99,,2013-03-09 20:52:00,
2013-03-09 14:02:00,30.0,29.0,-100.00,NW,305,16.0,21.0,94,0.00,,,-99.99,,2013-03-09 21:02:00,
2013-03-09 14:12:00,30.0,28.0,-100.00,NNW,335,11.0,21.0,92,0.00,,,-99.99,,2013-03-09 21:12:00,
2013-03-09 14:22:00,30.0,28.0,-100.00,WNW,300,16.0,22.0,89,0.00,,,-99.99,,2013-03-09 21:22:00,
2013-03-09 14:32:00,30.0,26.0,-100.00,WNW,300,17.0,22.0,86,0.00,,,-99.99,,2013-03-09 21:32:00,
2013-03-09 14:42:00,30.0,26.0,-100.00,WNW,300,19.0,22.0,84,0.00,,,-99.99,,2013-03-09 21:42:00,
2013-03-09 14:52:00,30.0,25.0,-100.00,WNW,300,19.0,22.0,83,0.00,,,-99.99,,2013-03-09 21:52:00,
2013-03-09 15:01:00,30.0,25.0,-100.00,WNW,300,17.0,24.0,82,0.00,,,-99.99,,2013-03-09 22:01:00,
2013-03-09 15:11:00,30.0,25.0,-100.00,WNW,300,12.0,24.0,80,0.00,,,-99.99,,2013-03-09 22:11:00,
2013-03-09 15:21:00,30.0,24.0,-100.00,WNW,295,15.0,20.0,78,0.00,,,-99.99,,2013-03-09 22:21:00,
2013-03-09 15:32:00,30.0,22.0,-100.00,West,280,12.0,21.0,74,0.00,,,-99.99,,2013-03-09 22:32:00,
2013-03-09 15:42:00,30.0,23.0,-100.00,NW,305,14.0,19.0,74,0.00,,,-99.99,,2013-03-09 22:42:00,
2013-03-09 15:51:00,29.0,22.0,-100.00,WNW,295,14.0,21.0,72,0.00,,,-99.99,,2013-03-09 22:51:00,
2013-03-09 16:01:00,29.0,22.0,-100.00,WNW,290,14.0,19.0,74,0.00,,,-99.99,,2013-03-09 23:01:00,
2013-03-09 16:11:00,29.0,22.0,-100.00,WNW,300,17.0,24.0,73,0.00,,,-99.99,,2013-03-09 23:11:00,
2013-03-09 16:21:00,30.0,23.0,-100.00,WNW,295,11.0,18.0,74,0.00,,,-99.99,,2013-03-09 23:21:00,
2013-03-09 16:32:00,29.0,22.0,-100.00,WNW,290,12.0,20.0,73,0.00,,,-99.99,,2013-03-09 23:32:00,
2013-03-09 16:42:00,29.0,21.0,-100.00,WNW,295,14.0,19.0,72,0.00,,,-99.99,,2013-03-09 23:42:00,
2013-03-09 16:52:00,29.0,21.0,-100.00,West,265,12.0,19.0,70,0.00,,,-99.99,,2013-03-09 23:52:00,
2013-03-09 17:01:00,29.0,22.0,-100.00,NW,305,16.0,22.0,73,0.00,,,-99.99,,2013-03-10 00:01:00,
2013-03-09 17:11:00,29.0,23.0,-100.00,WNW,300,17.0,21.0,79,0.00,,,-99.99,,2013-03-10 00:11:00,
2013-03-09 17:22:00,28.0,24.0,-100.00,WNW,295,15.0,18.0,82,0.00,,,-99.99,,2013-03-10 00:22:00,
2013-03-09 17:32:00,28.0,24.0,-100.00,NW,310,11.0,19.0,86,0.00,,,-99.99,,2013-03-10 00:32:00,
2013-03-09 17:42:00,28.0,24.0,-100.00,NW,325,4.0,14.0,87,0.00,,,-99.99,,2013-03-10 00:42:00,
2013-03-09 17:52:00,28.0,24.0,-100.00,WNW,295,10.0,15.0,87,0.00,,,-99.99,,2013-03-10 00:52:00,
2013-03-09 18:01:00,28.0,24.0,-100.00,WNW,300,7.0,11.0,86,0.00,,,-99.99,,2013-03-10 01:01:00,
2013-03-09 18:11:00,28.0,24.0,-100.00,NW,305,9.0,10.0,86,0.00,,,-99.99,,2013-03-10 01:11:00,
2013-03-09 18:21:00,28.0,24.0,-100.00,WNW,295,7.0,10.0,84,0.00,,,-99.99,,2013-03-10 01:21:00,
2013-03-09 18:31:00,28.0,24.0,-100.00,WNW,285,4.0,7.0,84,0.00,,,-99.99,,2013-03-10 01:31:00,
2013-03-09 18:41:00,28.0,24.0,-100.00,WNW,290,6.0,7.0,84,0.00,,,-99.99,,2013-03-10 01:41:00,
2013-03-09 18:51:00,28.0,24.0,-100.00,NW,305,5.0,7.0,84,0.00,,,-99.99,,2013-03-10 01:51:00,
2013-03-09 19:01:00,28.0,24.0,-100.00,NW,310,10.0,14.0,84,0.00,,,-99.99,,2013-03-10 02:01:00,
2013-03-09 19:11:00,27.0,23.0,-100.00,WNW,300,11.0,17.0,84,0.00,,,-99.99,,2013-03-10 02:11:00,
2013-03-09 19:22:00,27.0,22.0,-100.00,NW,305,11.0,17.0,80,0.00,,,-99.99,,2013-03-10 02:22:00,
2013-03-09 19:32:00,27.0,21.0,-100.00,WNW,300,12.0,19.0,78,0.00,,,-99.99,,2013-03-10 02:32:00,
2013-03-09 19:42:00,27.0,21.0,-100.00,NW,320,7.0,13.0,78,0.00,,,-99.99,,2013-03-10 02:42:00,
2013-03-09 19:52:00,26.0,21.0,-100.00,WNW,295,17.0,22.0,79,0.00,,,-99.99,,2013-03-10 02:52:00,
2013-03-09 20:01:00,26.0,20.0,-100.00,WNW,295,9.0,24.0,79,0.00,,,-99.99,,2013-03-10 03:01:00,
2013-03-09 20:11:00,26.0,20.0,-100.00,WNW,300,13.0,17.0,78,0.00,,,-99.99,,2013-03-10 03:11:00,
2013-03-09 20:22:00,26.0,20.0,-100.00,WNW,300,13.0,17.0,78,0.00,,,-99.99,,2013-03-10 03:22:00,
2013-03-09 20:32:00,25.0,18.0,-100.00,NW,320,7.0,14.0,73,0.00,,,-99.99,,2013-03-10 03:32:00,
2013-03-09 20:42:00,25.0,18.0,-100.00,WNW,300,7.0,13.0,73,0.00,,,-99.99,,2013-03-10 03:42:00,
2013-03-09 20:52:00,25.0,18.0,-100.00,WNW,295,11.0,14.0,76,0.00,,,-99.99,,2013-03-10 03:52:00,
2013-03-09 21:01:00,24.0,19.0,-100.00,WNW,290,11.0,15.0,78,0.00,,,-99.99,,2013-03-10 04:01:00,
2013-03-09 21:11:00,24.0,19.0,-100.00,WNW,295,9.0,17.0,80,0.00,,,-99.99,,2013-03-10 04:11:00,
2013-03-09 21:21:00,24.0,19.0,-100.00,NW,310,6.0,9.0,80,0.00,,,-99.99,,2013-03-10 04:21:00,
2013-03-09 21:31:00,24.0,19.0,-100.00,WNW,290,5.0,11.0,80,0.00,,,-99.99,,2013-03-10 04:31:00,
2013-03-09 21:42:00,23.0,18.0,-100.00,NW,315,4.0,9.0,80,0.00,,,-99.99,,2013-03-10 04:42:00,
2013-03-09 21:51:00,23.0,18.0,-100.00,NNW,330,7.0,9.0,80,0.00,,,-99.99,,2013-03-10 04:51:00,
2013-03-09 22:01:00,23.0,18.0,-100.00,NNW,340,6.0,9.0,79,0.00,,,-99.99,,2013-03-10 05:01:00,
2013-03-09 22:11:00,24.0,18.0,-100.00,NNW,340,6.0,10.0,78,0.00,,,-99.99,,2013-03-10 05:11:00,
2013-03-09 22:22:00,24.0,17.0,-100.00,WNW,300,9.0,12.0,76,0.00,,,-99.99,,2013-03-10 05:22:00,
2013-03-09 22:31:00,24.0,18.0,-100.00,WNW,300,9.0,12.0,77,0.00,,,-99.99,,2013-03-10 05:31:00,
2013-03-09 22:42:00,23.0,17.0,-100.00,West,275,7.0,12.0,78,0.00,,,-99.99,,2013-03-10 05:42:00,
2013-03-09 22:52:00,23.0,17.0,-100.00,WNW,295,9.0,11.0,78,0.00,,,-99.99,,2013-03-10 05:52:00,
2013-03-09 23:01:00,22.0,17.0,-100.00,NW,305,12.0,15.0,79,0.00,,,-99.99,,2013-03-10 06:01:00,
2013-03-09 23:11:00,22.0,17.0,-100.00,WNW,290,7.0,12.0,78,0.00,,,-99.99,,2013-03-10 06:11:00,
2013-03-09 23:22:00,21.0,16.0,-100.00,NW,320,6.0,11.0,78,0.00,,,-99.99,,2013-03-10 06:22:00,
2013-03-09 23:32:00,22.0,16.0,-100.00,NNW,340,9.0,14.0,76,0.00,,,-99.99,,2013-03-10 06:32:00,
2013-03-09 23:42:00,21.0,15.0,-100.00,WNW,300,7.0,11.0,76,0.00,,,-99.99,,2013-03-10 06:42:00,
2013-03-09 23:51:00,21.0,15.0,-100.00,North,0,4.0,11.0,75,0.00,,,-99.99,,2013-03-10 06:51:00,